BSTW Weather Reports


Display with metric or nautical units.
time (UTC)temp
F
wind
direction
speed
MPH
gust
MPH
rain 1hr
in
rain 24hr
in
rain mn
in
humidity
%
barometer
mb
20260506191040 85 344 3.0 9.0 0.00 0.00 0.00 71 1007.8
20260506190539 85 131 3.0 8.0 0.00 0.00 0.00 70 1007.8
20260506190055 84 134 0.0 5.0 0.00 0.00 0.00 71 1007.9
20260506185541 84 0 1.0 7.0 0.00 0.00 0.00 73 1007.9
20260506185039 83 352 2.0 7.0 0.00 0.00 0.00 75 1008.0
20260506184549 83 49 1.0 6.0 0.00 0.00 0.00 76 1008.2
20260506184040 83 41 1.0 4.0 0.00 0.00 0.00 76 1008.1
20260506183539 83 68 1.0 4.0 0.00 0.00 0.00 76 1008.3
20260506183048 82 0 0.0 5.0 0.00 0.00 0.00 76 1008.3
20260506182540 82 4 1.0 5.0 0.00 0.00 0.00 77 1008.5
20260506182040 82 44 1.0 5.0 0.00 0.00 0.00 77 1008.5
20260506181543 83 70 0.0 4.0 0.00 0.00 0.00 76 1008.5
20260506181043 82 0 0.0 6.0 0.00 0.00 0.00 77 1008.5
20260506180540 82 20 1.0 7.0 0.00 0.00 0.00 78 1008.6
20260506180057 82 0 2.0 7.0 0.00 0.00 0.00 78 1008.6
20260506175540 82 78 1.0 5.0 0.00 0.00 0.00 78 1008.7
20260506175039 82 6 0.0 4.0 0.00 0.00 0.00 77 1008.7
20260506174547 81 0 1.0 4.0 0.00 0.00 0.00 78 1008.8
20260506174040 81 67 0.0 4.0 0.00 0.00 0.00 81 1008.7
20260506173540 80 37 1.0 5.0 0.00 0.00 0.00 81 1008.8
20260506173103 80 26 1.0 7.0 0.00 0.00 0.00 82 1008.7
20260506172540 80 73 2.0 7.0 0.00 0.00 0.00 81 1008.7
20260506172040 80 35 2.0 6.0 0.00 0.00 0.00 83 1008.7
20260506171551 80 24 3.0 6.0 0.00 0.00 0.00 82 1008.7
20260506171040 80 33 0.0 4.0 0.00 0.00 0.00 82 1008.7
20260506170540 80 0 2.0 5.0 0.00 0.00 0.00 83 1008.7
20260506170059 79 62 2.0 5.0 0.00 0.00 0.00 84 1008.7
20260506165543 79 356 0.0 6.0 0.00 0.00 0.00 84 1008.7
20260506165040 79 1 3.0 6.0 0.00 0.00 0.00 84 1008.8
20260506164605 79 8 1.0 7.0 0.00 0.00 0.00 84 1008.8
20260506164039 80 46 2.0 7.0 0.00 0.00 0.00 83 1008.8
20260506163539 80 58 3.0 6.0 0.00 0.00 0.00 84 1008.6
20260506163058 80 86 3.0 6.0 0.00 0.00 0.00 83 1008.7
20260506162541 79 14 2.0 7.0 0.00 0.00 0.00 84 1008.6
20260506162039 79 96 4.0 7.0 0.00 0.00 0.00 86 1008.6
20260506161552 77 0 3.0 7.0 0.00 0.00 0.00 88 1008.6
20260506161040 78 17 2.0 5.0 0.00 0.00 0.00 88 1008.5
20260506160540 77 25 3.0 5.0 0.00 0.00 0.00 89 1008.5
20260506160105 77 59 3.0 5.0 0.00 0.00 0.00 90 1008.5
20260506155540 76 82 2.0 5.0 0.00 0.00 0.00 90 1008.5
20260506155040 76 44 2.0 7.0 0.00 0.00 0.00 91 1008.4
20260506154553 76 13 3.0 7.0 0.00 0.00 0.00 90 1008.3
20260506154040 76 90 1.0 5.0 0.00 0.00 0.00 90 1008.3
20260506153540 76 10 1.0 5.0 0.00 0.00 0.00 89 1008.2
20260506153047 76 89 1.0 4.0 0.00 0.00 0.00 89 1008.1
20260506152536 76 40 1.0 6.0 0.00 0.00 0.00 89 1008.1
20260506152040 76 62 1.0 6.0 0.00 0.00 0.00 89 1008.0
20260506151550 76 90 2.0 7.0 0.00 0.00 0.00 89 1007.9
20260506151039 76 0 1.0 7.0 0.00 0.00 0.00 89 1007.9
20260506150539 76 112 3.0 7.0 0.00 0.00 0.00 89 1007.9
20260506150050 76 111 2.0 7.0 0.00 0.00 0.00 89 1007.9
20260506145544 76 86 2.0 7.0 0.00 0.00 0.00 89 1007.8
20260506145041 76 70 1.0 6.0 0.00 0.00 0.00 90 1007.9
20260506144552 76 83 2.0 6.0 0.00 0.00 0.00 89 1007.7
20260506144040 76 0 1.0 6.0 0.00 0.00 0.00 89 1007.6
20260506143540 76 70 2.0 8.0 0.00 0.00 0.00 90 1007.6
20260506143050 76 117 3.0 10.0 0.00 0.00 0.00 90 1007.4
20260506142539 76 104 4.0 10.0 0.00 0.00 0.00 90 1007.4
20260506142039 76 98 2.0 8.0 0.00 0.00 0.00 90 1007.3
20260506141607 76 0 3.0 8.0 0.00 0.00 0.00 90 1007.4
20260506141042 76 0 2.0 8.0 0.00 0.00 0.00 90 1007.2
20260506140539 76 125 4.0 8.0 0.00 0.00 0.00 91 1007.1
20260506140049 76 140 1.0 9.0 0.00 0.00 0.00 90 1007.0
20260506135540 75 151 4.0 9.0 0.00 0.00 0.00 91 1007.1
20260506135040 75 239 2.0 9.0 0.00 0.00 0.00 91 1006.7
20260506134546 75 82 4.0 11.0 0.00 0.00 0.00 91 1006.7
20260506134039 75 113 4.0 11.0 0.00 0.00 0.00 91 1006.7
20260506133539 75 231 1.0 10.0 0.00 0.00 0.00 91 1006.7
20260506133057 75 134 4.0 10.0 0.00 0.00 0.00 92 1006.6
20260506132540 75 226 4.0 11.0 0.00 0.00 0.00 92 1006.6
20260506132041 75 116 5.0 11.0 0.00 0.00 0.00 92 1006.6
20260506131548 75 68 5.0 11.0 0.00 0.00 0.00 92 1006.4
20260506131041 75 79 4.0 11.0 0.00 0.00 0.00 92 1006.4
20260506130540 75 39 4.0 11.0 0.00 0.00 0.00 92 1006.3
20260506130048 75 128 2.0 7.0 0.00 0.00 0.00 92 1006.2
20260506125539 74 98 1.0 8.0 0.00 0.00 0.00 92 1006.4
20260506125039 74 222 4.0 8.0 0.00 0.00 0.00 92 1006.2
20260506124551 74 84 3.0 8.0 0.00 0.00 0.00 92 1006.3
20260506124039 74 0 2.0 8.0 0.00 0.00 0.00 93 1006.3
20260506123540 74 130 3.0 8.0 0.00 0.00 0.00 93 1006.4
20260506123047 74 276 4.0 11.0 0.00 0.00 0.00 93 1006.2
20260506122540 74 16 4.0 11.0 0.00 0.00 0.00 93 1006.3
20260506122040 74 90 4.0 8.0 0.00 0.00 0.00 93 1006.4
20260506121555 74 0 2.0 7.0 0.00 0.00 0.00 93 1006.4
20260506121040 74 117 1.0 8.0 0.00 0.00 0.00 93 1006.5
20260506120540 74 89 2.0 8.0 0.00 0.00 0.00 93 1006.3
20260506120115 74 101 3.0 7.0 0.00 0.00 0.00 93 1006.1
20260506115539 74 89 3.0 7.0 0.00 0.00 0.00 93 1006.2
20260506115039 74 118 3.0 6.0 0.00 0.00 0.00 93 1006.3
20260506114547 74 128 2.0 4.0 0.00 0.00 0.00 93 1006.2
20260506114039 74 140 1.0 5.0 0.00 0.00 0.00 93 1006.3
20260506113539 74 0 1.0 5.0 0.00 0.00 0.00 94 1006.3
20260506113049 74 0 0.0 5.0 0.00 0.00 0.00 94 1006.1
20260506112541 74 0 0.0 2.0 0.00 0.00 0.00 94 1006.1
20260506112039 74 96 0.0 2.0 0.00 0.00 0.00 93 1006.1
20260506111549 74 0 0.0 1.0 0.00 0.00 0.00 94 1006.2
20260506111041 74 0 0.0 2.0 0.00 0.00 0.00 94 1006.1
20260506110540 74 0 0.0 2.0 0.00 0.00 0.00 94 1006.1
20260506110051 74 0 0.0 2.0 0.00 0.00 0.00 94 1006.1
20260506105542 74 0 0.0 3.0 0.00 0.00 0.00 93 1006.1
20260506105040 74 127 0.0 3.0 0.00 0.00 0.00 93 1006.0
20260506104548 74 96 1.0 4.0 0.00 0.00 0.00 93 1005.8
20260506104040 74 112 1.0 4.0 0.00 0.00 0.00 93 1005.9
20260506103539 74 108 3.0 4.0 0.00 0.00 0.00 94 1005.8
20260506103053 74 129 0.0 3.0 0.00 0.00 0.00 91 1005.8
20260506102540 74 99 0.0 5.0 0.00 0.00 0.00 93 1005.8
20260506102041 74 0 1.0 6.0 0.00 0.00 0.00 92 1005.8
20260506101550 74 150 2.0 6.0 0.00 0.00 0.00 93 1005.9
20260506101040 74 117 3.0 7.0 0.00 0.00 0.00 92 1005.8
20260506100540 74 115 4.0 7.0 0.00 0.00 0.00 92 1005.8
20260506100048 75 131 4.0 7.0 0.00 0.00 0.00 92 1005.8
20260506095540 75 91 3.0 7.0 0.00 0.00 0.00 92 1006.0
20260506095040 75 148 3.0 7.0 0.00 0.00 0.00 92 1005.9
20260506094549 75 129 3.0 7.0 0.00 0.00 0.00 92 1005.9
20260506094040 75 101 3.0 7.0 0.00 0.00 0.00 92 1005.9
20260506093542 75 122 4.0 8.0 0.00 0.00 0.00 92 1006.0
20260506093052 75 114 3.0 9.0 0.00 0.00 0.00 92 1006.0
20260506092540 75 132 4.0 9.0 0.00 0.00 0.00 92 1006.0
20260506092040 75 155 4.0 8.0 0.00 0.00 0.00 92 1006.0
20260506091547 75 79 3.0 8.0 0.00 0.00 0.00 91 1005.8
20260506091040 75 155 4.0 8.0 0.00 0.00 0.00 92 1005.9
20260506090539 75 100 5.0 8.0 0.00 0.00 0.00 92 1005.8
20260506090046 75 63 3.0 8.0 0.00 0.00 0.00 91 1005.9
20260506085541 75 155 3.0 13.0 0.00 0.00 0.00 92 1006.0
20260506085040 75 255 5.0 13.0 0.00 0.00 0.00 92 1006.0
20260506084549 75 134 4.0 9.0 0.00 0.00 0.00 91 1006.1
20260506084040 75 118 4.0 10.0 0.00 0.00 0.00 91 1006.1
20260506083540 75 116 4.0 10.0 0.00 0.00 0.00 91 1006.1
20260506083048 75 99 6.0 11.0 0.00 0.00 0.00 91 1006.1
20260506082542 75 134 5.0 11.0 0.00 0.00 0.00 90 1006.1
20260506082040 75 131 4.0 9.0 0.00 0.00 0.00 91 1006.3
20260506081550 75 122 4.0 15.0 0.00 0.00 0.00 90 1006.3
20260506081040 75 194 7.0 15.0 0.00 0.00 0.00 90 1006.3
20260506080545 75 103 4.0 10.0 0.00 0.00 0.00 90 1006.1
20260506073055 76 122 4.0 11.0 0.00 0.00 0.00 90 1006.3
20260506072539 76 120 6.0 12.0 0.00 0.00 0.00 90 1006.3
20260506072040 76 149 6.0 12.0 0.00 0.00 0.00 90 1006.3
20260506071554 76 113 4.0 13.0 0.00 0.00 0.00 89 1006.4
20260506071319 76 39 7.0 13.0 0.00 0.00 0.00 90 1006.5
20260506070540 76 143 6.0 13.0 0.00 0.00 0.00 90 1006.4
20260506070115 76 101 6.0 14.0 0.00 0.00 0.00 90 1006.4
20260506062042 76 90 11.0 18.0 0.00 0.00 0.00 89 1006.4
20260506061546 76 32 10.0 18.0 0.00 0.00 0.00 90 1006.3
20260506061044 76 99 7.0 17.0 0.00 0.00 0.00 90 1006.2
20260506060539 76 248 7.0 17.0 0.00 0.00 0.00 90 1006.5
20260506051040 76 88 6.0 15.0 0.00 0.00 0.00 89 1006.3
20260506050540 76 52 7.0 15.0 0.00 0.00 0.00 89 1006.3
20260506045039 76 147 8.0 15.0 0.00 0.00 0.00 89 1006.2
20260506044555 77 76 4.0 14.0 0.00 0.00 0.00 88 1006.2
20260506044039 77 315 7.0 14.0 0.00 0.00 0.00 88 1006.2
20260506043539 77 121 6.0 14.0 0.00 0.00 0.00 88 1006.2
20260506043048 77 131 8.0 21.0 0.00 0.00 0.00 87 1006.2
20260506042540 77 109 10.0 21.0 0.00 0.00 0.00 87 1006.2
20260506042041 77 217 10.0 21.0 0.00 0.00 0.00 86 1006.2
20260506041554 78 77 10.0 17.0 0.00 0.00 0.00 87 1006.2
20260506041041 78 278 6.0 17.0 0.00 0.00 0.00 86 1006.0
20260506040537 78 287 7.0 17.0 0.00 0.00 0.00 86 1006.1
20260506040051 78 162 7.0 15.0 0.00 0.00 0.00 86 1005.8
20260506035539 78 134 9.0 15.0 0.00 0.00 0.00 85 1005.9
20260506035040 79 133 5.0 20.0 0.00 0.00 0.00 85 1005.8
20260506034549 79 147 7.0 20.0 0.00 0.00 0.00 85 1005.8
20260506034040 79 145 8.0 20.0 0.00 0.00 0.00 85 1005.8
20260506033540 79 162 10.0 20.0 0.00 0.00 0.00 84 1005.7
20260506033052 79 23 9.0 20.0 0.00 0.00 0.00 84 1005.6
20260506032540 79 76 10.0 20.0 0.00 0.00 0.00 83 1005.5
20260506032040 79 98 7.0 16.0 0.00 0.00 0.00 83 1005.5
20260506031559 79 135 5.0 14.0 0.00 0.00 0.00 84 1005.5
20260506031040 79 242 5.0 16.0 0.00 0.00 0.00 83 1005.5
20260506030539 80 153 4.0 18.0 0.00 0.00 0.00 83 1005.3
20260506030109 80 165 9.0 20.0 0.00 0.00 0.00 83 1005.2
20260506025539 80 261 8.0 20.0 0.00 0.00 0.00 82 1005.2
20260506025040 80 87 8.0 20.0 0.00 0.00 0.00 82 1005.1
20260506024548 80 15 7.0 18.0 0.00 0.00 0.00 81 1004.9
20260506024039 81 101 9.0 22.0 0.00 0.00 0.00 81 1004.8
20260506023540 81 110 11.0 22.0 0.00 0.00 0.00 81 1004.6
20260506023052 81 148 7.0 21.0 0.00 0.00 0.00 81 1004.8
20260506022543 81 73 9.0 21.0 0.00 0.00 0.00 81 1004.8
20260506022041 81 115 11.0 21.0 0.00 0.00 0.00 80 1004.7
20260506021551 82 344 11.0 19.0 0.00 0.00 0.00 80 1004.6
20260506021039 82 141 4.0 18.0 0.00 0.00 0.00 79 1004.6
20260506020539 82 108 9.0 19.0 0.00 0.00 0.00 79 1004.5
20260506020048 82 139 11.0 22.0 0.00 0.00 0.00 79 1004.5
20260506015540 82 94 10.0 22.0 0.00 0.00 0.00 78 1004.2
20260506015041 83 89 11.0 22.0 0.00 0.00 0.00 78 1004.1
20260506014558 83 32 7.0 21.0 0.00 0.00 0.00 76 1004.0
20260506014042 83 360 5.0 17.0 0.00 0.00 0.00 75 1004.0
20260506013540 83 46 8.0 20.0 0.00 0.00 0.00 74 1003.8
20260506013052 84 252 9.0 20.0 0.00 0.00 0.00 74 1003.7
20260506012540 84 290 4.0 16.0 0.00 0.00 0.00 74 1003.8
20260506012040 84 83 6.0 16.0 0.00 0.00 0.00 74 1003.7
20260506011557 84 298 6.0 14.0 0.00 0.00 0.00 74 1003.5
20260506011040 84 84 8.0 14.0 0.00 0.00 0.00 73 1003.4
20260506010540 84 104 3.0 12.0 0.00 0.00 0.00 72 1003.4
20260506010049 85 117 7.0 12.0 0.00 0.00 0.00 71 1003.3
20260506005540 85 88 6.0 12.0 0.00 0.00 0.00 71 1003.3
20260506005039 85 99 5.0 13.0 0.00 0.00 0.00 71 1003.2
20260506004624 85 97 6.0 13.0 0.00 0.00 0.00 70 1003.1
20260506004040 86 94 6.0 12.0 0.00 0.00 0.00 69 1003.0
20260506003540 86 8 3.0 10.0 0.00 0.00 0.00 69 1003.1
20260506003049 87 357 2.0 10.0 0.00 0.00 0.00 69 1003.2
20260506002540 87 90 3.0 10.0 0.00 0.00 0.00 67 1003.2
20260506002043 87 109 3.0 8.0 0.00 0.00 0.00 67 1003.2
20260506001549 87 132 2.0 14.0 0.00 0.00 0.00 66 1003.1
20260506001040 88 111 4.0 14.0 0.00 0.00 0.00 67 1003.1
20260506000540 88 97 3.0 9.0 0.00 0.00 0.00 65 1003.1
20260506000054 89 69 2.0 7.0 0.00 0.00 0.00 65 1003.1
20260505235540 88 0 0.0 6.0 0.00 0.00 0.00 65 1003.0
20260505235041 88 139 1.0 9.0 0.00 0.00 0.00 66 1003.0
20260505234611 88 155 4.0 9.0 0.00 0.00 0.00 66 1003.0
20260505234040 88 122 3.0 10.0 0.00 0.00 0.00 66 1003.0
20260505233539 88 150 3.0 11.0 0.00 0.00 0.00 66 1003.0
20260505233051 88 127 5.0 11.0 0.00 0.00 0.00 65 1003.1
20260505232540 89 129 3.0 10.0 0.00 0.00 0.00 65 1003.1
20260505232041 89 101 1.0 8.0 0.00 0.00 0.00 65 1003.1
20260505231550 89 340 1.0 6.0 0.00 0.00 0.00 64 1003.0
20260505231039 89 0 0.0 4.0 0.00 0.00 0.00 63 1003.1
20260505230540 88 183 1.0 6.0 0.00 0.00 0.00 65 1003.0
20260505230055 89 116 2.0 6.0 0.00 0.00 0.00 65 1003.0
20260505225540 89 107 1.0 5.0 0.00 0.00 0.00 65 1003.1
20260505225040 88 99 1.0 9.0 0.00 0.00 0.00 65 1003.0
20260505224552 88 116 1.0 14.0 0.00 0.00 0.00 65 1002.8
20260505224040 88 106 7.0 14.0 0.00 0.00 0.00 65 1003.0
20260505223539 89 351 1.0 11.0 0.00 0.00 0.00 64 1003.0
20260505223059 88 176 6.0 12.0 0.00 0.00 0.00 66 1002.9
20260505222541 88 346 3.0 12.0 0.00 0.00 0.00 65 1003.0
20260505222040 87 110 3.0 12.0 0.00 0.00 0.00 66 1003.1
20260505221605 87 136 4.0 10.0 0.00 0.00 0.00 67 1003.2
20260505221039 88 78 6.0 10.0 0.00 0.00 0.00 66 1003.3
20260505220542 89 0 4.0 12.0 0.00 0.00 0.00 65 1003.3
20260505220057 88 122 4.0 15.0 0.00 0.00 0.00 65 1003.4
20260505215540 88 296 5.0 15.0 0.00 0.00 0.00 66 1003.4
20260505215040 88 162 2.0 15.0 0.00 0.00 0.00 66 1003.3
20260505214604 88 174 4.0 11.0 0.00 0.00 0.00 65 1003.4
20260505214040 88 150 5.0 13.0 0.00 0.00 0.00 66 1003.4
20260505213539 88 84 6.0 13.0 0.00 0.00 0.00 65 1003.7
20260505213047 88 134 4.0 12.0 0.00 0.00 0.00 66 1003.6
20260505212540 88 309 5.0 11.0 0.00 0.00 0.00 65 1003.7
20260505212040 88 113 1.0 9.0 0.00 0.00 0.00 65 1003.9
20260505211559 87 157 1.0 9.0 0.00 0.00 0.00 68 1004.0
20260505211040 87 138 4.0 9.0 0.00 0.00 0.00 67 1004.1
20260505210541 86 124 3.0 9.0 0.00 0.00 0.00 67 1004.1
20260505210051 87 356 2.0 7.0 0.00 0.00 0.00 68 1004.2
20260505205541 87 262 2.0 10.0 0.00 0.00 0.00 69 1004.3
20260505205041 86 96 4.0 10.0 0.00 0.00 0.00 69 1004.4
20260505204545 86 166 4.0 8.0 0.00 0.00 0.00 69 1004.5
20260505204040 86 117 1.0 9.0 0.00 0.00 0.00 68 1004.5
20260505203615 86 128 4.0 9.0 0.00 0.00 0.00 68 1004.6
20260505203049 86 290 1.0 4.0 0.00 0.00 0.00 67 1004.7
20260505202544 87 138 0.0 4.0 0.00 0.00 0.00 67 1004.8
20260505202040 86 0 1.0 6.0 0.00 0.00 0.00 68 1004.9
20260505201602 85 0 1.0 8.0 0.00 0.00 0.00 70 1004.9
20260505201040 84 297 3.0 9.0 0.00 0.00 0.00 71 1005.0
20260505200540 84 92 3.0 9.0 0.00 0.00 0.00 70 1005.1
20260505200100 85 79 3.0 9.0 0.00 0.00 0.00 69 1005.1
20260505195539 85 134 1.0 11.0 0.00 0.00 0.00 69 1005.1
20260505195040 85 0 3.0 11.0 0.00 0.00 0.00 70 1005.2
20260505194555 86 181 7.0 11.0 0.00 0.00 0.00 67 1005.3
20260505194040 88 0 0.0 9.0 0.00 0.00 0.00 65 1005.2
20260505193539 88 109 3.0 9.0 0.00 0.00 0.00 65 1005.3
20260505193049 88 295 0.0 7.0 0.00 0.00 0.00 64 1005.5
20260505192540 88 151 1.0 7.0 0.00 0.00 0.00 65 1005.5
20260505192040 87 116 1.0 4.0 0.00 0.00 0.00 67 1005.6
20260505191553 86 62 0.0 5.0 0.00 0.00 0.00 69 1005.6